Location: Home
(42.5358°N, 72.7383°W)
Time: 19:48:01
(UTC-05:00)

Explorer 7 - Pass Details

Date: 30 November 2021
Orbit: 483 x 674 km, 50.3° (Epoch: 23 January)

Event Time Altitude Azimuth Distance (km) Brightness Sun altitude
Rises 08:05:42 0° 261° (W) 2,744 10.0 9.0°
Reaches altitude 10° 08:08:07 10° 269° (W) 1,816 9.1 9.4°
Maximum altitude 08:12:00 40° 340° (NNW) 788 7.3 9.9°
Drops below altitude 10° 08:15:42 10° 51° (NE) 1,726 9.5 10.4°
Sets 08:17:57 0° 59° (ENE) 2,590 10.5 10.7°
